This is the latest recevied weather packets stored in our database for station/object KC2TER. If no packets are shown the sender has not sent any weather packets the latest 1 day(s).
| Time | Temp. | Humidity | Pressure | Rain* | Wind** | Luminosity | Snow |
|---|---|---|---|---|---|---|---|
| 1778016446 | 23.89° C | 59% | 1008.9 hPa | 0 mm | 0.89 m/s, 120° | 87 W/m² | - |
| 1778016143 | 23.89° C | 59% | 1008.8 hPa | 0 mm | 1.79 m/s, 11° | 87 W/m² | - |
| 1778015840 | 23.89° C | 58% | 1008.8 hPa | 0 mm | 1.34 m/s, 31° | 168 W/m² | - |
| 1778015538 | 23.89° C | 59% | 1008.9 hPa | 0 mm | 1.34 m/s, 57° | 166 W/m² | - |
| 1778015234 | 23.89° C | 60% | 1008.9 hPa | 0 mm | 0.89 m/s, 69° | 243 W/m² | - |
| 1778014930 | 23.89° C | 60% | 1008.8 hPa | 0 mm | 1.34 m/s, 99° | 102 W/m² | - |
| 1778014628 | 24.44° C | 60% | 1008.7 hPa | 0 mm | 0.89 m/s, 96° | 254 W/m² | - |
| 1778014326 | 23.89° C | 60% | 1008.8 hPa | 0 mm | 0.89 m/s, 92° | 288 W/m² | - |
| 1778014022 | 23.89° C | 60% | 1008.8 hPa | 0 mm | 0.89 m/s, 105° | 292 W/m² | - |
| 1778013720 | 23.89° C | 59% | 1008.6 hPa | 0 mm | 0.45 m/s, 99° | 316 W/m² | - |
| 1778013417 | 24.44° C | 59% | 1008.8 hPa | 0 mm | 1.34 m/s, 77° | 303 W/m² | - |
| 1778013114 | 23.89° C | 59% | 1008.7 hPa | 0 mm | 2.24 m/s, 123° | 354 W/m² | - |
| 1778012809 | 23.89° C | 60% | 1008.8 hPa | 0 mm | 2.24 m/s, 88° | 420 W/m² | - |
| 1778012506 | 23.89° C | 60% | 1008.5 hPa | 0 mm | 0.89 m/s, 105° | 312 W/m² | - |
| 1778012203 | 23.89° C | 59% | 1008.8 hPa | 0 mm | 1.34 m/s, 108° | 338 W/m² | - |
| 1778011901 | 23.89° C | 60% | 1008.6 hPa | 0 mm | 0.45 m/s, 76° | 387 W/m² | - |
| 1778011599 | 23.89° C | 60% | 1008.7 hPa | 0 mm | 0.45 m/s, 86° | 377 W/m² | - |
| 1778011295 | 24.44° C | 58% | 1008.8 hPa | 0 mm | 2.24 m/s, 60° | 391 W/m² | - |
| 1778010991 | 24.44° C | 59% | 1008.9 hPa | 0 mm | 0.89 m/s, 60° | 474 W/m² | - |
| 1778010689 | 24.44° C | 57% | 1008.7 hPa | 0 mm | 2.24 m/s, 137° | 514 W/m² | - |
| 1778010386 | 25° C | 57% | 1008.9 hPa | 0 mm | 1.79 m/s, 330° | 562 W/m² | - |
| 1778010081 | 25.56° C | 56% | 1008.9 hPa | 0 mm | 1.79 m/s, 110° | 515 W/m² | - |
| 1778009779 | 25° C | 58% | 1009 hPa | 0 mm | 0.45 m/s, 92° | 566 W/m² | - |
| 1778009476 | 25° C | 57% | 1009 hPa | 0 mm | 1.79 m/s, 114° | 582 W/m² | - |
| 1778009174 | 25.56° C | 57% | 1009.1 hPa | 0 mm | 2.24 m/s, 103° | 609 W/m² | - |
* Rain latest hour (hover to see other rain measurements)
** Current wind speed in m/s (hover to see current wind gust speed)